When you browse on this site, cookies collect data to enhance your experience and personalize the content and advertising you see.
Visit our Privacy Policy to learn more. By continuing to use the site, you agree to this use of cookies and data.
  • en France
  • Liste des pays
  • À 7 jours
  • Température de l'eau
  • Carte satellitaire
  • Carte météo
  • Widgets météo
  • user-avatar
    Se connecter

    Météo par heure à Stepanakert

    Ce jour, 27 Juin, Jeudi

    Heure Température Précipitation Vent Pression Humidité
    00:00 +23°C° 0 mm 1 m/s 692 mmHg 57%
    01:00 +23°C° 0 mm 1 m/s 692 mmHg 58%
    02:00 +22°C° 0 mm 1 m/s 692 mmHg 60%
    03:00 +22°C° 0 mm 1 m/s 692 mmHg 61%
    04:00 +22°C° 0.1 mm 1 m/s 692 mmHg 61%
    05:00 +23°C° 0.1 mm 1 m/s 692 mmHg 62%
    06:00 +23°C° 0.1 mm 1 m/s 692 mmHg 62%
    07:00 +24°C° 0 mm 2 m/s 692 mmHg 58%
    08:00 +25°C° 0 mm 2 m/s 692 mmHg 54%
    09:00 +27°C° 0 mm 3 m/s 693 mmHg 50%
    10:00 +28°C° 0 mm 3 m/s 692 mmHg 48%
    11:00 +28°C° 0 mm 3 m/s 692 mmHg 47%
    12:00 +29°C° 0 mm 3 m/s 692 mmHg 45%
    13:00 +30°C° 0.1 mm 3 m/s 691 mmHg 45%
    14:00 +30°C° 0.1 mm 3 m/s 691 mmHg 46%
    15:00 +30°C° 0.1 mm 3 m/s 690 mmHg 47%
    16:00 +29°C° 0.4 mm 2 m/s 690 mmHg 50%
    17:00 +29°C° 0.4 mm 2 m/s 690 mmHg 53%
    18:00 +28°C° 0.4 mm 2 m/s 690 mmHg 55%
    19:00 +26°C° 0.1 mm 2 m/s 690 mmHg 58%
    20:00 +25°C° 0.1 mm 2 m/s 690 mmHg 62%
    21:00 +23°C° 0.1 mm 2 m/s 690 mmHg 65%
    22:00 +23°C° 0.1 mm 1 m/s 690 mmHg 66%
    23:00 +23°C° 0.1 mm 1 m/s 690 mmHg 67%

    Demain, 28 Juin, Vendredi

    Heure Température Précipitation Vent Pression Humidité
    00:00 +23°C° 0.1 mm 1 m/s 690 mmHg 69%
    01:00 +22°C° 0 mm 1 m/s 689 mmHg 70%
    02:00 +22°C° 0 mm 1 m/s 689 mmHg 71%
    03:00 +21°C° 0 mm 1 m/s 689 mmHg 72%
    04:00 +22°C° 0 mm 1 m/s 689 mmHg 69%
    05:00 +23°C° 0 mm 1 m/s 689 mmHg 67%
    06:00 +21°C° 0 mm 0 m/s 689 mmHg 65%
    07:00 +25°C° 0 mm 1 m/s 689 mmHg 59%
    08:00 +26°C° 0 mm 1 m/s 689 mmHg 53%
    09:00 +27°C° 0 mm 2 m/s 689 mmHg 48%
    10:00 +28°C° 0 mm 2 m/s 688 mmHg 47%
    11:00 +29°C° 0 mm 2 m/s 688 mmHg 46%
    12:00 +30°C° 0 mm 3 m/s 687 mmHg 44%
    13:00 +30°C° 0 mm 3 m/s 687 mmHg 44%
    14:00 +31°C° 0 mm 2 m/s 686 mmHg 44%
    15:00 +31°C° 0 mm 2 m/s 686 mmHg 44%
    16:00 +30°C° 0.1 mm 2 m/s 686 mmHg 47%
    17:00 +30°C° 0.1 mm 2 m/s 685 mmHg 51%
    18:00 +29°C° 0.1 mm 1 m/s 685 mmHg 54%
    19:00 +28°C° 0.1 mm 1 m/s 685 mmHg 57%
    20:00 +26°C° 0.1 mm 1 m/s 685 mmHg 61%
    21:00 +25°C° 0.1 mm 1 m/s 686 mmHg 64%
    22:00 +25°C° 0.1 mm 1 m/s 686 mmHg 65%
    23:00 +24°C° 0.1 mm 1 m/s 685 mmHg 67%

    Après-demain, 29 Juin, Samedi

    Heure Température Précipitation Vent Pression Humidité
    00:00 +24°C° 0.1 mm 2 m/s 685 mmHg 69%
    01:00 +23°C° 0 mm 2 m/s 685 mmHg 70%
    02:00 +23°C° 0 mm 2 m/s 684 mmHg 71%
    03:00 +21°C° 0 mm 2 m/s 684 mmHg 72%
    04:00 +23°C° 0.1 mm 1 m/s 684 mmHg 70%
    05:00 +24°C° 0.1 mm 1 m/s 684 mmHg 69%
    06:00 +22°C° 0.1 mm 0 m/s 685 mmHg 67%
    07:00 +25°C° 0.1 mm 1 m/s 685 mmHg 64%
    08:00 +26°C° 0.1 mm 2 m/s 685 mmHg 60%
    09:00 +28°C° 0.1 mm 2 m/s 685 mmHg 56%
    10:00 +28°C° 0 mm 2 m/s 685 mmHg 54%
    11:00 +29°C° 0 mm 3 m/s 685 mmHg 53%
    12:00 +30°C° 0 mm 3 m/s 684 mmHg 51%
    13:00 +30°C° 0.1 mm 3 m/s 684 mmHg 50%
    14:00 +30°C° 0.1 mm 3 m/s 683 mmHg 50%
    15:00 +31°C° 0.1 mm 2 m/s 683 mmHg 49%
    16:00 +30°C° 0.3 mm 2 m/s 683 mmHg 52%
    17:00 +29°C° 0.3 mm 2 m/s 683 mmHg 56%
    18:00 +28°C° 0.3 mm 2 m/s 683 mmHg 59%
    19:00 +27°C° 0.9 mm 2 m/s 683 mmHg 66%
    20:00 +25°C° 0.9 mm 1 m/s 684 mmHg 72%
    21:00 +23°C° 0.9 mm 1 m/s 684 mmHg 79%
    22:00 +23°C° 1.1 mm 1 m/s 684 mmHg 81%
    23:00 +22°C° 1.1 mm 1 m/s 684 mmHg 84%

    30 Juin, Dimanche

    Heure Température Précipitation Vent Pression Humidité
    00:00 +22°C° 1.1 mm 1 m/s 685 mmHg 86%
    01:00 +22°C° 0.2 mm 1 m/s 685 mmHg 87%
    02:00 +21°C° 0.2 mm 1 m/s 685 mmHg 88%
    03:00 +21°C° 0.2 mm 1 m/s 685 mmHg 89%
    04:00 +21°C° 0 mm 1 m/s 685 mmHg 88%
    05:00 +21°C° 0 mm 1 m/s 685 mmHg 88%
    06:00 +22°C° 0 mm 1 m/s 686 mmHg 87%
    07:00 +22°C° 0.2 mm 1 m/s 686 mmHg 84%
    08:00 +21°C° 0.2 mm 2 m/s 686 mmHg 81%
    09:00 +23°C° 0.2 mm 2 m/s 686 mmHg 79%
    10:00 +23°C° 0.2 mm 2 m/s 686 mmHg 75%
    11:00 +24°C° 0.2 mm 2 m/s 686 mmHg 70%
    12:00 +25°C° 0.2 mm 2 m/s 686 mmHg 66%
    13:00 +25°C° 0.1 mm 2 m/s 686 mmHg 64%
    14:00 +26°C° 0.1 mm 3 m/s 686 mmHg 61%
    15:00 +26°C° 0.1 mm 3 m/s 685 mmHg 59%
    16:00 +25°C° 0.1 mm 3 m/s 685 mmHg 63%
    17:00 +23°C° 0.1 mm 4 m/s 685 mmHg 68%
    18:00 +22°C° 0.1 mm 4 m/s 685 mmHg 72%
    19:00 +21°C° 0.1 mm 3 m/s 686 mmHg 76%
    20:00 +20°C° 0.1 mm 3 m/s 686 mmHg 79%
    21:00 +19°C° 0.1 mm 2 m/s 686 mmHg 83%
    22:00 +18°C° 0.1 mm 2 m/s 687 mmHg 85%
    23:00 +18°C° 0.1 mm 2 m/s 687 mmHg 87%

    1 Juillet, Lundi

    Heure Température Précipitation Vent Pression Humidité
    00:00 +18°C° 0.1 mm 2 m/s 687 mmHg 89%
    01:00 +17°C° 0.4 mm 2 m/s 687 mmHg 90%
    02:00 +17°C° 0.4 mm 2 m/s 687 mmHg 91%
    03:00 +16°C° 0.4 mm 1 m/s 687 mmHg 93%
    04:00 +16°C° 0.5 mm 1 m/s 687 mmHg 92%
    05:00 +16°C° 0.5 mm 1 m/s 688 mmHg 92%
    06:00 +16°C° 0.5 mm 1 m/s 688 mmHg 92%
    07:00 +16°C° 0.5 mm 1 m/s 688 mmHg 91%
    08:00 +16°C° 0.5 mm 2 m/s 688 mmHg 91%
    09:00 +15°C° 0.5 mm 2 m/s 689 mmHg 90%
    10:00 +16°C° 0.2 mm 2 m/s 689 mmHg 89%
    11:00 +16°C° 0.2 mm 1 m/s 689 mmHg 87%
    12:00 +16°C° 0.2 mm 1 m/s 689 mmHg 86%
    13:00 +16°C° 0.1 mm 1 m/s 689 mmHg 84%
    14:00 +16°C° 0.1 mm 1 m/s 689 mmHg 83%
    15:00 +16°C° 0.1 mm 1 m/s 689 mmHg 81%
    16:00 +16°C° 0.4 mm 1 m/s 689 mmHg 81%
    17:00 +18°C° 0.4 mm 1 m/s 690 mmHg 81%
    18:00 +18°C° 0.4 mm 1 m/s 690 mmHg 81%
    19:00 +16°C° 0.4 mm 1 m/s 691 mmHg 83%
    20:00 +16°C° 0.4 mm 1 m/s 691 mmHg 85%
    21:00 +15°C° 0.4 mm 1 m/s 692 mmHg 87%
    22:00 +15°C° 0 mm 1 m/s 692 mmHg 87%
    23:00 +14°C° 0 mm 1 m/s 692 mmHg 87%

    2 Juillet, Mardi

    Heure Température Précipitation Vent Pression Humidité
    00:00 +14°C° 0 mm 1 m/s 692 mmHg 88%
    01:00 +14°C° 0 mm 1 m/s 692 mmHg 88%
    02:00 +13°C° 0 mm 1 m/s 692 mmHg 87%
    03:00 +13°C° 0 mm 1 m/s 693 mmHg 87%
    04:00 +14°C° 0 mm 1 m/s 693 mmHg 84%
    05:00 +15°C° 0 mm 1 m/s 693 mmHg 81%
    06:00 +15°C° 0 mm 1 m/s 694 mmHg 78%
    07:00 +18°C° 0 mm 1 m/s 694 mmHg 71%
    08:00 +19°C° 0 mm 2 m/s 694 mmHg 64%
    09:00 +20°C° 0 mm 2 m/s 694 mmHg 58%
    10:00 +21°C° 0 mm 2 m/s 694 mmHg 55%
    11:00 +23°C° 0 mm 2 m/s 694 mmHg 53%
    12:00 +24°C° 0 mm 3 m/s 694 mmHg 50%
    13:00 +25°C° 0 mm 2 m/s 694 mmHg 50%
    14:00 +25°C° 0 mm 2 m/s 693 mmHg 50%
    15:00 +25°C° 0 mm 2 m/s 693 mmHg 49%
    16:00 +25°C° 0 mm 2 m/s 693 mmHg 52%
    17:00 +24°C° 0 mm 2 m/s 693 mmHg 54%
    18:00 +24°C° 0 mm 2 m/s 693 mmHg 57%
    19:00 +21°C° 0 mm 2 m/s 693 mmHg 60%
    20:00 +20°C° 0 mm 2 m/s 693 mmHg 62%
    21:00 +18°C° 0 mm 2 m/s 693 mmHg 65%
    22:00 +18°C° 0 mm 2 m/s 693 mmHg 64%
    23:00 +18°C° 0 mm 2 m/s 693 mmHg 64%
    Voir plus